This is the latest recevied weather packets stored in our database for station/object KD2SIG. If no packets are shown the sender has not sent any weather packets the latest 10 day(s).
| Time | Temp. | Humidity | Pressure | Rain* | Wind** | Luminosity | Snow |
|---|---|---|---|---|---|---|---|
| 1777895087 | 10.56° C | 72% | 1007.3 hPa | 0 mm | - | 110 W/m² | - |
| 1777894784 | 10° C | 72% | 1007.5 hPa | 0 mm | - | 43 W/m² | - |
| 1777894480 | 10° C | 74% | 1007.2 hPa | 0 mm | - | 32 W/m² | - |
| 1777894178 | 10° C | 73% | 1007.3 hPa | 0 mm | - | 21 W/m² | - |
| 1777893875 | 10° C | 75% | 1007.4 hPa | 0 mm | - | 29 W/m² | - |
| 1777893571 | 10° C | 76% | 1007.3 hPa | 0 mm | - | 16 W/m² | - |
| 1777893268 | 10° C | 75% | 1007.4 hPa | 0 mm | - | 10 W/m² | - |
| 1777892965 | 10° C | 75% | 1007.5 hPa | 0 mm | - | 11 W/m² | - |
| 1777892661 | 10° C | 72% | 1007.4 hPa | 0 mm | - | 7 W/m² | - |
| 1777892357 | 10.56° C | 70% | 1006.9 hPa | 0 mm | - | 10 W/m² | - |
| 1777892053 | 10.56° C | 71% | 1007.3 hPa | 0 mm | - | 13 W/m² | - |
| 1777891751 | 10° C | 71% | 1007.4 hPa | 0 mm | - | 6 W/m² | - |
| 1777891447 | 10° C | 71% | 1007.2 hPa | 0 mm | - | 5 W/m² | - |
| 1777891143 | 10.56° C | 71% | 1007.2 hPa | 0 mm | - | 0 W/m² | - |
| 1777890838 | 10.56° C | 71% | 1007.2 hPa | 0 mm | - | 1 W/m² | - |
| 1777890534 | 10° C | 72% | 1007.1 hPa | 0 mm | - | 3 W/m² | - |
| 1777890229 | 10° C | 72% | 1007.2 hPa | 0 mm | - | 1 W/m² | - |
| 1777889926 | 10° C | 73% | 1007.2 hPa | 0 mm | - | 1 W/m² | - |
| 1777889624 | 10° C | 73% | 1006.8 hPa | 0 mm | - | 3 W/m² | - |
| 1777889321 | 10° C | 73% | 1007.1 hPa | 0 mm | - | 0 W/m² | - |
| 1777889018 | 10° C | 72% | 1006.9 hPa | 0 mm | - | 1 W/m² | - |
| 1777888716 | 10° C | 72% | 1006.9 hPa | 0 mm | - | 0 W/m² | - |
| 1777888411 | 10° C | 73% | 1006.9 hPa | 0 mm | - | 0 W/m² | - |
| 1777888108 | 10° C | 73% | 1006.8 hPa | 0 mm | - | 0 W/m² | - |
| 1777887805 | 10° C | 72% | 1006.9 hPa | 0 mm | - | 0 W/m² | - |
* Rain latest hour (hover to see other rain measurements)
** Current wind speed in m/s (hover to see current wind gust speed)